星链-5553 (STARLINK-5553 )

导读 | 星芒AI

STARLINK-5553 是 SpaceX 星链计划中的一颗低轨通信卫星,属于星链第三代(Gen3)星座的一部分。该卫星于2024年发射,旨在为全球用户提供高速互联网服务。它运行在约550公里高的近地轨道,配备先进通信设备,支持更高带宽和更低延迟。作为星链网络的重要节点,STARLINK-5553 有助于提升偏远地区的网络覆盖,推动全球互联网普及。

基本信息
目录编号:
56333
目录名称:
STARLINK-5553
国际标识:
2023-058S
轨道中心:
EARTH
卫星名称:
星链-5553
卫星全名:
星链-5553 (STARLINK-5553 )
卫星状态:
在轨 (已飞行969 天)
发射日期:
2023-04-27 UTC
国别 :
美国 (US)
星等 :
--
轨道信息
数据来源 国际轨道数据
星历时间: 2025-12-21T06:23:23+0800
16小时前
查看轨道信息
半长轴: 6927.477km
偏心率: 0.0001751
轨道倾角: 97.603°
近地点辐角 63.862°
升交点赤经 353.544°
平近点角 296.279°
近地点: 548.126km
远地点: 550.554km
周期: 95.636分钟
每日圈数: 15.057061
详细信息
固有亮度:
5
最大亮度:
2.5
卫星平台:
Starlink v1.5
覆盖范围:
全球
运营商:
太空探索技术公司
运营商所在国:
美国
制造商(研发单位):
太空探索技术公司
制造商所在国:
美国
使用方式:
暂无
卫星简介
星链(Starlink)计划是由太空探索技术公司(SpaceX)提出的一个巨型低轨卫星互联网星座项目,计划在2019年至2024年间在太空搭建由约1.2万颗卫星组成的“星链”网络,其中1584颗将部署在地球上空550千米处的近地轨道,并从2020年开始工作。该卫星仍在工作。
2D轨道图
3D轨道图
轨道高度分析图
轨道倾角分析图
轨道综合分析图
查看轨道综合分析图